Pittsfield, MA

1:44 AM EST on December 17, 2017 (GMT -0500)
Pittsfield Municipal

Weather History for KPSF - December, 2014

Change the Weather History Date:

Thursday, December 4, 2014

  Actual Average Record
Temperature  
Mean Temperature 27 °F 31 °F  
Max Temperature 33 °F 38 °F 60 °F (1962)
Min Temperature 20 °F 24 °F 1 °F (1966)
Degree Days  
Heating Degree Days 38 34  
Month to date heating degree days 132 134  
Since 1 July heating degree days 1754 1785  
Cooling Degree Days 0 0  
Month to date cooling degree days 0 0  
Year to date cooling degree days 238 290  
Moisture  
Dew Point 19 °F    
Average Humidity 75    
Maximum Humidity 92    
Minimum Humidity 58    
Precipitation  
Precipitation 0.00 in 0.11 in 1.32 in (1950)
Month to date precipitation 0.10 0.41  
Year to date precipitation 40.52 42.79  
Sea Level Pressure  
Sea Level Pressure 30.33 in    
Wind  
Wind Speed 10 mph (WNW)    
Max Wind Speed 24 mph    
Max Gust Speed 36 mph    
Visibility 10 miles    
Events      
T = Trace of Precipitation, MM = Missing Value Source: NWS Daily Summary

Daily Weather History Graph

Daily Weather History Graph

Search for Another Location

Airport or City:

Trip Planner

Search our weather history database for the weather conditions in past years. The results will help you decide how hot, cold, wet, or windy it might be!

Date:

Astronomy

Dec. 04, 2014 Rise Set
Actual Time 7:05 AM EST 4:20 PM EST
Civil Twilight 6:34 AM EST 4:52 PM EST
Nautical Twilight 5:59 AM EST 5:27 PM EST
Astronomical Twilight 5:25 AM EST 6:01 PM EST
Moon 3:22 PM EST (12/4) 4:51 AM EST (12/4)
Length of Visible Light 10h 17m
Length of Day
9h 14m
Waxing Gibbous, 96% of the Moon is Illuminated
Dec 4
Waxing Gibbous
Dec 6
Full
Dec 14
Last Quarter
Dec 21
New
Dec 28
First Quarter

Hourly Weather History & Observations

Time (EST) Temp. Windchill Dew Point Humidity Pressure Visibility Wind Dir Wind Speed Gust Speed Precip Events Conditions
12:54 AM 32.0 °F 24.2 °F 21.0 °F 64% 30.13 in 10.0 mi West 9.2 mph - N/A   Clear
1:54 AM 30.9 °F 21.7 °F 19.9 °F 64% 30.16 in 10.0 mi West 11.5 mph - N/A   Partly Cloudy
2:54 AM 30.9 °F 20.7 °F 19.9 °F 64% 30.18 in 10.0 mi West 13.8 mph 21.9 mph N/A   Clear
3:54 AM 30.9 °F 20.7 °F 19.9 °F 64% 30.17 in 10.0 mi West 13.8 mph 26.5 mph N/A   Clear
4:54 AM 30.9 °F 21.7 °F 19.9 °F 64% 30.17 in 10.0 mi WNW 11.5 mph 21.9 mph N/A   Clear
5:54 AM 30.9 °F 19.4 °F 21.0 °F 67% 30.20 in 10.0 mi WNW 17.3 mph 26.5 mph N/A   Clear
6:54 AM 30.9 °F 18.1 °F 17.1 °F 57% 30.22 in 10.0 mi WNW 21.9 mph 35.7 mph N/A   Clear
7:54 AM 30.0 °F 20.0 °F 17.1 °F 59% 30.25 in 10.0 mi WNW 12.7 mph 28.8 mph N/A   Clear
8:54 AM 30.9 °F 19.4 °F 18.0 °F 59% 30.27 in 10.0 mi WNW 17.3 mph 29.9 mph N/A   Clear
9:54 AM 30.9 °F 23.5 °F 19.0 °F 61% 30.32 in 10.0 mi WNW 8.1 mph 18.4 mph N/A   Clear
10:54 AM 32.0 °F 21.6 °F 19.0 °F 59% 30.33 in 10.0 mi WNW 15.0 mph 20.7 mph N/A   Scattered Clouds
11:54 AM 32.0 °F 24.2 °F 19.9 °F 61% 30.33 in 10.0 mi NW 9.2 mph 21.9 mph N/A   Mostly Cloudy
12:54 PM 32.0 °F 22.1 °F 19.0 °F 59% 30.35 in 10.0 mi WNW 13.8 mph - N/A   Overcast
1:54 PM 32.0 °F 25.6 °F 19.0 °F 59% 30.35 in 10.0 mi NW 6.9 mph 18.4 mph N/A   Overcast
2:54 PM 30.9 °F 21.7 °F 19.0 °F 61% 30.37 in 10.0 mi WNW 11.5 mph - N/A   Mostly Cloudy
3:54 PM 30.0 °F 24.1 °F 18.0 °F 61% 30.39 in 10.0 mi WNW 5.8 mph - N/A   Scattered Clouds
4:54 PM 28.9 °F 21.1 °F 18.0 °F 64% 30.41 in 10.0 mi WNW 8.1 mph - N/A   Clear
5:54 PM 27.0 °F 20.5 °F 19.0 °F 72% 30.44 in 10.0 mi WNW 5.8 mph - N/A   Clear
6:54 PM 27.0 °F 21.6 °F 19.0 °F 72% 30.47 in 10.0 mi WNW 4.6 mph - N/A   Clear
7:54 PM 26.1 °F 19.4 °F 19.0 °F 75% 30.48 in 10.0 mi NW 5.8 mph - N/A   Clear
8:54 PM 23.0 °F - 18.0 °F 81% 30.49 in 10.0 mi Calm Calm - N/A   Clear
9:54 PM 21.9 °F 17.2 °F 19.0 °F 89% 30.49 in 10.0 mi SE 3.5 mph - N/A   Clear
10:54 PM 21.0 °F - 19.0 °F 92% 30.51 in 10.0 mi Calm Calm - N/A   Clear
11:54 PM 21.0 °F - 18.0 °F 88% 30.53 in 10.0 mi North - - N/A   Clear